Home   Weather   Montgomery   Past weeks
Flag for USA

Past Weather in Montgomery, Alabama, USA — Yesterday and Last 2 Weeks

Now
61 °F

Light rain. Passing clouds.


Feels Like: 61 °F
Forecast: 79 / 62 °F
Wind: No wind

Location: Maxwell Air Force Base / Montgomery

Current Time: Oct 14, 2019 at 12:33:40 am

Latest Report: Oct 14, 2019 at 12:03 am


Visibility: 10 mi

Pressure: 30.06 "Hg

Humidity: 83%

Dew Point: 55 °F

Location of MontgomeryLocation

Past Weather in Montgomery — Graph

°F

Montgomery Temperature Yesterday

Maximum temperature yesterday: 72 °F (at 3:56 pm)
Minimum temperature yesterday: 59 °F (at 11:22 pm)
Average temperature yesterday: 65 °F

High & Low Weather Summary for the Past Weeks

 TemperatureHumidityPressure
High100 °F (Oct 3, 2:56 pm)100% (Oct 13, 11:33 am)30.20 "Hg (Oct 13, 11:33 am)
Low59 °F (Oct 13, 11:22 pm)27% (Oct 4, 3:56 pm)29.90 "Hg (Oct 4, 4:56 pm)
Average78 °F69%30.03 "Hg
* Reported Sep 28 11:56 pm — Oct 13 11:22 pm, Montgomery. Weather by CustomWeather, © 2019

Note: Actual official high and low records may vary slightly from our data, if they occured in-between our weather recording intervals... More about our weather records

Advertising

Montgomery Weather History for the Previous 24 Hours

Scroll right to see more
 ConditionsComfort  
Time TempWeatherWind HumidityBarometerVisibility
11:22 pm
Sun, Oct 13
59 °FPassing clouds.3 mph94%30.08 "Hg10 mi
11:12 pm61 °FDrizzle. Mostly cloudy.5 mph88%30.08 "Hg10 mi
10:56 pm60 °FPartly cloudy.3 mph91%30.08 "Hg10 mi
10:13 pm61 °FPartly cloudy.7 mph94%30.08 "Hg10 mi
9:56 pm61 °FLight rain. Passing clouds.3 mph93%30.06 "Hg9 mi
8:56 pm61 °FLight rain. Passing clouds.No wind89%30.09 "Hg10 mi
8:13 pm61 °FLight rain. Mostly cloudy.5 mph88%30.10 "Hg10 mi
7:56 pm61 °FPassing clouds.8 mph88%30.09 "Hg10 mi
6:56 pm64 °FRain. Fog.8 mph87%30.08 "Hg5 mi
6:26 pm66 °FLight rain. Passing clouds.6 mph88%30.06 "Hg9 mi
6:17 pm66 °FClear.5 mph88%30.08 "Hg10 mi
5:56 pm69 °FLight rain. Passing clouds.6 mph82%30.06 "Hg10 mi
5:21 pm72 °FDrizzle. Partly sunny.3 mph73%30.04 "Hg10 mi
4:56 pm72 °FSunny.3 mph71%30.03 "Hg10 mi
3:56 pm72 °FSunny.3 mph71%30.03 "Hg10 mi
2:56 pm71 °FOvercast.5 mph76%30.04 "Hg10 mi
1:56 pm68 °FPartly sunny.3 mph85%30.03 "Hg10 mi
1:26 pm66 °FMostly cloudy.No wind88%30.05 "Hg10 mi
1:11 pm66 °FMostly cloudy.5 mph94%30.06 "Hg7 mi
12:56 pm65 °FFog.7 mph95%30.06 "Hg5 mi
12:41 pm66 °FFog.6 mph94%30.08 "Hg3 mi
11:56 am65 °FLow clouds.3 mph95%30.06 "Hg8 mi
11:33 am64 °FFog.No wind100%30.08 "Hg6 mi
11:21 am64 °FLight rain. Fog.5 mph94%30.08 "Hg2 mi
10:56 am66 °FHeavy rain. Fog.3 mph88%30.08 "Hg1 mi
10:43 am68 °FLight rain. Overcast.3 mph78%30.06 "Hg10 mi
9:56 am67 °FOvercast.3 mph79%30.06 "Hg10 mi
8:56 am65 °FOvercast.No wind85%30.08 "Hg10 mi
7:56 am64 °FOvercast.No wind88%30.06 "Hg10 mi
7:26 am63 °FMostly cloudy.3 mph94%30.06 "Hg10 mi
6:56 am63 °FMore clouds than sun.No wind88%30.05 "Hg10 mi
5:56 am63 °FMostly cloudy.No wind90%30.03 "Hg10 mi
4:56 am62 °FOvercast.No wind89%30.01 "Hg10 mi
3:56 am62 °FMostly cloudy.No wind91%30.01 "Hg10 mi
2:56 am62 °FOvercast.No wind92%30.01 "Hg10 mi
1:56 am61 °FOvercast.No wind92%30.01 "Hg10 mi
12:56 am61 °FPassing clouds.No wind93%30.01 "Hg10 mi
Weather by CustomWeather, © 2019

See weather overview